Time,TemperatureF,DewpointF,PressureIn,WindDirection,WindDirectionDegrees,WindSpeedMPH,WindSpeedGustMPH,Humidity,HourlyPrecipIn,Conditions,Clouds,dailyrainin,SoftwareType,DateUTC
2013-03-21 00:01:00,27.6,20.0,29.82,NW,311,4.0,10.0,74,0.00,,,0.00,weatherlink.com 1.10,2013-03-21 04:01:00,
2013-03-21 00:16:00,27.7,20.0,29.82,NW,309,2.0,5.0,72,0.00,,,0.00,weatherlink.com 1.10,2013-03-21 04:16:00,
2013-03-21 00:31:00,27.3,20.0,29.82,WNW,293,4.0,5.0,73,0.00,,,0.00,weatherlink.com 1.10,2013-03-21 04:31:00,
2013-03-21 00:46:00,26.6,19.0,29.82,NNW,339,0.0,2.0,74,0.00,,,0.00,weatherlink.com 1.10,2013-03-21 04:46:00,
2013-03-21 01:01:00,25.1,19.0,29.83,ESE,105,1.0,1.0,79,0.00,,,0.00,weatherlink.com 1.10,2013-03-21 05:01:00,
2013-03-21 01:16:00,24.4,19.0,29.82,SW,235,2.0,2.0,80,0.00,,,0.00,weatherlink.com 1.10,2013-03-21 05:16:00,
2013-03-21 01:47:00,22.1,18.0,29.82,WSW,249,0.0,2.0,84,0.00,,,0.00,weatherlink.com 1.10,2013-03-21 05:47:00,
2013-03-21 02:02:00,21.6,18.0,29.82,WSW,239,0.0,0.0,86,0.00,,,0.00,weatherlink.com 1.10,2013-03-21 06:02:00,
2013-03-21 02:17:00,22.8,18.0,29.82,West,274,0.0,3.0,83,0.00,,,0.00,weatherlink.com 1.10,2013-03-21 06:17:00,
2013-03-21 02:32:00,22.4,18.0,29.82,WSW,240,0.0,3.0,82,0.00,,,0.00,weatherlink.com 1.10,2013-03-21 06:32:00,
2013-03-21 02:47:00,22.1,17.0,29.81,NW,322,1.0,2.0,80,0.00,,,0.00,weatherlink.com 1.10,2013-03-21 06:47:00,
2013-03-21 03:02:00,21.4,17.0,29.81,WNW,300,2.0,3.0,82,0.00,,,0.00,weatherlink.com 1.10,2013-03-21 07:02:00,
2013-03-21 03:17:00,21.9,17.0,29.80,WNW,295,0.0,3.0,81,0.00,,,0.00,weatherlink.com 1.10,2013-03-21 07:17:00,
2013-03-21 03:32:00,21.0,16.0,29.80,SW,221,0.0,2.0,82,0.00,,,0.00,weatherlink.com 1.10,2013-03-21 07:32:00,
2013-03-21 03:47:00,20.1,16.0,29.79,SW,222,0.0,2.0,85,0.00,,,0.00,weatherlink.com 1.10,2013-03-21 07:47:00,
2013-03-21 04:02:00,21.9,17.0,29.79,West,259,3.0,5.0,80,0.00,,,0.00,weatherlink.com 1.10,2013-03-21 08:02:00,
2013-03-21 04:17:00,23.2,16.0,29.79,WNW,283,2.0,7.0,74,0.00,,,0.00,weatherlink.com 1.10,2013-03-21 08:17:00,
2013-03-21 04:32:00,23.7,16.0,29.79,WSW,252,3.0,9.0,72,0.00,,,0.00,weatherlink.com 1.10,2013-03-21 08:32:00,
2013-03-21 04:47:00,23.8,16.0,29.78,WNW,295,3.0,10.0,71,0.00,,,0.00,weatherlink.com 1.10,2013-03-21 08:47:00,
2013-03-21 05:02:00,22.1,15.0,29.79,NNW,332,1.0,5.0,74,0.00,,,0.00,weatherlink.com 1.10,2013-03-21 09:02:00,
2013-03-21 05:17:00,21.7,15.0,29.78,NNW,327,2.0,3.0,75,0.00,,,0.00,weatherlink.com 1.10,2013-03-21 09:17:00,
2013-03-21 05:32:00,20.2,15.0,29.78,ESE,122,1.0,1.0,79,0.00,,,0.00,weatherlink.com 1.10,2013-03-21 09:32:00,
2013-03-21 05:47:00,21.1,15.0,29.78,ESE,119,0.0,4.0,77,0.00,,,0.00,weatherlink.com 1.10,2013-03-21 09:47:00,
2013-03-21 06:02:00,20.0,14.0,29.79,ENE,70,1.0,2.0,78,0.00,,,0.00,weatherlink.com 1.10,2013-03-21 10:02:00,
2013-03-21 06:17:00,18.4,14.0,29.79,ENE,78,2.0,2.0,81,0.00,,,0.00,weatherlink.com 1.10,2013-03-21 10:17:00,
2013-03-21 06:32:00,17.3,14.0,29.79,SW,217,0.0,1.0,86,0.00,,,0.00,weatherlink.com 1.10,2013-03-21 10:32:00,
2013-03-21 06:47:00,17.1,14.0,29.79,WNW,290,0.0,1.0,87,0.00,,,0.00,weatherlink.com 1.10,2013-03-21 10:47:00,
2013-03-21 07:02:00,16.5,13.0,29.79,NW,314,0.0,0.0,86,0.00,,,0.00,weatherlink.com 1.10,2013-03-21 11:02:00,
2013-03-21 07:17:00,16.4,14.0,29.79,WNW,285,0.0,1.0,88,0.00,,,0.00,weatherlink.com 1.10,2013-03-21 11:17:00,
2013-03-21 07:32:00,16.9,13.0,29.80,West,279,0.0,1.0,86,0.00,,,0.00,weatherlink.com 1.10,2013-03-21 11:32:00,
2013-03-21 07:47:00,16.9,14.0,29.79,North,357,0.0,1.0,87,0.00,,,0.00,weatherlink.com 1.10,2013-03-21 11:47:00,
2013-03-21 08:02:00,19.7,15.0,29.79,NW,326,1.0,4.0,81,0.00,,,0.00,weatherlink.com 1.10,2013-03-21 12:02:00,
2013-03-21 08:17:00,22.0,16.0,29.79,NNW,347,0.0,4.0,76,0.00,,,0.00,weatherlink.com 1.10,2013-03-21 12:17:00,
2013-03-21 08:32:00,23.7,16.0,29.79,NE,40,4.0,6.0,72,0.00,,,0.00,weatherlink.com 1.10,2013-03-21 12:32:00,
2013-03-21 08:47:00,24.7,16.0,29.79,North,351,0.0,4.0,69,0.00,,,0.00,weatherlink.com 1.10,2013-03-21 12:47:00,
2013-03-21 09:02:00,25.5,16.0,29.79,NW,304,2.0,2.0,66,0.00,,,0.00,weatherlink.com 1.10,2013-03-21 13:02:00,
2013-03-21 09:17:00,27.2,16.0,29.79,NNW,333,2.0,2.0,64,0.00,,,0.00,weatherlink.com 1.10,2013-03-21 13:17:00,
2013-03-21 09:32:00,28.4,16.0,29.79,North,360,1.0,3.0,60,0.00,,,0.00,weatherlink.com 1.10,2013-03-21 13:32:00,
2013-03-21 09:47:00,29.6,16.0,29.79,NE,49,2.0,5.0,56,0.00,,,0.00,weatherlink.com 1.10,2013-03-21 13:47:00,
2013-03-21 10:02:00,29.1,16.0,29.78,ENE,74,0.0,6.0,59,0.00,,,0.00,weatherlink.com 1.10,2013-03-21 14:02:00,
2013-03-21 10:18:00,30.6,17.0,29.78,NE,48,3.0,6.0,57,0.00,,,0.00,weatherlink.com 1.10,2013-03-21 14:18:00,
2013-03-21 10:33:00,31.8,18.0,29.78,North,357,2.0,2.0,57,0.00,,,0.00,weatherlink.com 1.10,2013-03-21 14:33:00,
2013-03-21 10:48:00,33.6,17.0,29.77,East,94,2.0,3.0,50,0.00,,,0.00,weatherlink.com 1.10,2013-03-21 14:48:00,
2013-03-21 11:03:00,32.6,14.0,29.76,NNE,26,4.0,6.0,47,0.00,,,0.00,weatherlink.com 1.10,2013-03-21 15:03:00,
2013-03-21 11:18:00,32.9,12.0,29.76,NNW,336,2.0,7.0,43,0.00,,,0.00,weatherlink.com 1.10,2013-03-21 15:18:00,
2013-03-21 11:33:00,33.1,12.0,29.75,NW,314,4.0,7.0,42,0.00,,,0.00,weatherlink.com 1.10,2013-03-21 15:33:00,
2013-03-21 11:48:00,34.0,14.0,29.74,NE,47,4.0,5.0,44,0.00,,,0.00,weatherlink.com 1.10,2013-03-21 15:48:00,
2013-03-21 12:03:00,35.1,16.0,29.74,ENE,65,0.0,6.0,45,0.00,,,0.00,weatherlink.com 1.10,2013-03-21 16:03:00,
2013-03-21 12:18:00,34.8,11.0,29.73,WNW,300,8.0,10.0,38,0.00,,,0.00,weatherlink.com 1.10,2013-03-21 16:18:00,
2013-03-21 12:33:00,34.5,13.0,29.72,NNW,328,2.0,14.0,41,0.00,,,0.00,weatherlink.com 1.10,2013-03-21 16:33:00,
2013-03-21 12:48:00,36.0,14.0,29.71,NNW,333,6.0,9.0,41,0.00,,,0.00,weatherlink.com 1.10,2013-03-21 16:48:00,
2013-03-21 13:03:00,36.9,14.0,29.71,NE,41,3.0,7.0,39,0.00,,,0.00,weatherlink.com 1.10,2013-03-21 17:03:00,
2013-03-21 13:18:00,36.0,14.0,29.70,ENE,65,6.0,9.0,40,0.00,,,0.00,weatherlink.com 1.10,2013-03-21 17:18:00,
2013-03-21 13:33:00,36.2,13.0,29.70,NW,320,7.0,7.0,38,0.00,,,0.00,weatherlink.com 1.10,2013-03-21 17:33:00,
2013-03-21 13:48:00,36.1,14.0,29.69,NNW,340,1.0,9.0,41,0.00,,,0.00,weatherlink.com 1.10,2013-03-21 17:48:00,
2013-03-21 14:03:00,35.6,13.0,29.69,NW,323,4.0,13.0,39,0.00,,,0.00,weatherlink.com 1.10,2013-03-21 18:03:00,
2013-03-21 14:18:00,36.3,13.0,29.69,NW,325,9.0,11.0,39,0.00,,,0.00,weatherlink.com 1.10,2013-03-21 18:18:00,
2013-03-21 14:33:00,36.1,13.0,29.68,WNW,300,2.0,11.0,38,0.00,,,0.00,weatherlink.com 1.10,2013-03-21 18:33:00,
2013-03-21 14:48:00,37.1,15.0,29.67,NW,319,2.0,9.0,40,0.00,,,0.00,weatherlink.com 1.10,2013-03-21 18:48:00,
2013-03-21 15:03:00,36.5,12.0,29.67,NW,318,5.0,10.0,37,0.00,,,0.00,weatherlink.com 1.10,2013-03-21 19:03:00,
2013-03-21 15:18:00,37.1,13.0,29.66,NNW,330,9.0,12.0,38,0.00,,,0.00,weatherlink.com 1.10,2013-03-21 19:18:00,
2013-03-21 15:33:00,36.0,12.0,29.66,NNW,345,1.0,11.0,37,0.00,,,0.00,weatherlink.com 1.10,2013-03-21 19:33:00,
2013-03-21 15:48:00,37.2,14.0,29.66,North,354,5.0,8.0,39,0.01,,,0.01,weatherlink.com 1.10,2013-03-21 19:48:00,
2013-03-21 16:03:00,36.7,13.0,29.66,NW,326,7.0,11.0,37,0.01,,,0.01,weatherlink.com 1.10,2013-03-21 20:03:00,
2013-03-21 16:18:00,36.2,13.0,29.66,NW,316,10.0,11.0,39,0.01,,,0.01,weatherlink.com 1.10,2013-03-21 20:18:00,
2013-03-21 16:33:00,35.2,12.0,29.66,NNW,343,4.0,14.0,38,0.02,,,0.02,weatherlink.com 1.10,2013-03-21 20:33:00,
2013-03-21 16:48:00,34.7,13.0,29.66,NNW,330,6.0,12.0,40,0.01,,,0.02,weatherlink.com 1.10,2013-03-21 20:48:00,
2013-03-21 17:03:00,34.1,13.0,29.66,NW,311,4.0,10.0,41,0.01,,,0.02,weatherlink.com 1.10,2013-03-21 21:03:00,
2013-03-21 17:18:00,34.6,11.0,29.66,NNW,339,5.0,14.0,37,0.01,,,0.02,weatherlink.com 1.10,2013-03-21 21:18:00,
2013-03-21 17:33:00,35.3,12.0,29.66,WNW,297,7.0,13.0,38,0.00,,,0.02,weatherlink.com 1.10,2013-03-21 21:33:00,
2013-03-21 18:04:00,34.6,11.0,29.66,NNW,336,8.0,15.0,38,0.00,,,0.02,weatherlink.com 1.10,2013-03-21 22:04:00,
2013-03-21 18:19:00,34.0,11.0,29.67,NW,315,3.0,15.0,39,0.00,,,0.02,weatherlink.com 1.10,2013-03-21 22:19:00,
2013-03-21 18:34:00,32.9,10.0,29.67,NW,307,5.0,12.0,39,0.00,,,0.02,weatherlink.com 1.10,2013-03-21 22:34:00,
2013-03-21 18:49:00,31.9,11.0,29.67,NNW,336,6.0,12.0,41,0.00,,,0.02,weatherlink.com 1.10,2013-03-21 22:49:00,
2013-03-21 19:04:00,31.5,11.0,29.68,NW,325,3.0,14.0,42,0.00,,,0.02,weatherlink.com 1.10,2013-03-21 23:04:00,
2013-03-21 19:19:00,31.0,11.0,29.68,North,351,10.0,13.0,43,0.00,,,0.02,weatherlink.com 1.10,2013-03-21 23:19:00,
2013-03-21 19:34:00,30.9,11.0,29.68,NW,305,10.0,14.0,43,0.00,,,0.02,weatherlink.com 1.10,2013-03-21 23:34:00,
2013-03-21 19:49:00,30.6,11.0,29.69,NW,315,8.0,15.0,45,0.00,,,0.02,weatherlink.com 1.10,2013-03-21 23:49:00,
2013-03-21 20:04:00,30.2,12.0,29.70,NW,313,6.0,15.0,47,0.00,,,0.02,weatherlink.com 1.10,2013-03-22 00:04:00,
2013-03-21 20:19:00,29.8,13.0,29.70,WNW,290,9.0,13.0,49,0.00,,,0.02,weatherlink.com 1.10,2013-03-22 00:19:00,
2013-03-21 20:34:00,29.4,13.0,29.71,NNW,335,6.0,17.0,51,0.00,,,0.02,weatherlink.com 1.10,2013-03-22 00:34:00,
2013-03-21 20:49:00,29.0,13.0,29.71,NNW,328,8.0,17.0,52,0.00,,,0.02,weatherlink.com 1.10,2013-03-22 00:49:00,
2013-03-21 21:04:00,28.8,13.0,29.71,NW,319,6.0,13.0,53,0.00,,,0.02,weatherlink.com 1.10,2013-03-22 01:04:00,
2013-03-21 21:19:00,28.7,13.0,29.71,NNW,333,10.0,19.0,52,0.00,,,0.02,weatherlink.com 1.10,2013-03-22 01:19:00,
2013-03-21 21:34:00,28.3,13.0,29.71,NNW,336,5.0,15.0,53,0.00,,,0.02,weatherlink.com 1.10,2013-03-22 01:34:00,
2013-03-21 21:49:00,27.9,14.0,29.71,NNE,23,5.0,10.0,55,0.00,,,0.02,weatherlink.com 1.10,2013-03-22 01:49:00,
2013-03-21 22:04:00,27.7,13.0,29.71,NW,322,5.0,9.0,55,0.00,,,0.02,weatherlink.com 1.10,2013-03-22 02:04:00,
2013-03-21 22:19:00,27.1,13.0,29.71,NNW,337,2.0,4.0,56,0.00,,,0.02,weatherlink.com 1.10,2013-03-22 02:19:00,
2013-03-21 22:34:00,26.1,14.0,29.71,NW,313,1.0,3.0,60,0.00,,,0.02,weatherlink.com 1.10,2013-03-22 02:34:00,
2013-03-21 22:49:00,26.1,13.0,29.71,WNW,293,0.0,5.0,59,0.00,,,0.02,weatherlink.com 1.10,2013-03-22 02:49:00,
2013-03-21 23:04:00,25.1,14.0,29.71,NW,315,0.0,2.0,63,0.00,,,0.02,weatherlink.com 1.10,2013-03-22 03:04:00,
2013-03-21 23:19:00,24.0,16.0,29.72,WNW,302,2.0,2.0,70,0.00,,,0.02,weatherlink.com 1.10,2013-03-22 03:19:00,
2013-03-21 23:34:00,24.0,14.0,29.71,NNW,330,4.0,7.0,67,0.00,,,0.02,weatherlink.com 1.10,2013-03-22 03:34:00,
2013-03-21 23:49:00,24.4,14.0,29.71,WNW,295,1.0,5.0,65,0.00,,,0.02,weatherlink.com 1.10,2013-03-22 03:49:00,